Satellite: NOAA-17
Catalog number: 27453
Epoch time:      11062.58767416
Element set:     205
Inclination:      098.3948 deg
RA of node:       107.0816 deg
Eccentricity:    0.0012744
Arg of perigee:   098.2453 deg
Mean anomaly:     262.0189 deg
Mean motion:   14.24241838 rev/day
Decay rate:       2.18e-06 rev/day^2
Epoch rev:           45162
Checksum:              307

Satellite: NOAA-18
Catalog number: 28654
Epoch time:      11062.54822422
Element set:     688
Inclination:      098.9850 deg
RA of node:       013.5017 deg
Eccentricity:    0.0014988
Arg of perigee:   044.6559 deg
Mean anomaly:     315.5792 deg
Mean motion:   14.11443377 rev/day
Decay rate:       3.63e-06 rev/day^2
Epoch rev:           29802
Checksum:              324

Satellite: NOAA-19
Catalog number: 33591
Epoch time:      11062.59296783
Element set:     882
Inclination:      098.8177 deg
RA of node:       004.5728 deg
Eccentricity:    0.0013330
Arg of perigee:   276.0882 deg
Mean anomaly:     083.8737 deg
Mean motion:   14.11136621 rev/day
Decay rate:       3.29e-06 rev/day^2
Epoch rev:           10649
Checksum:              323

/EX
SB KEPS @ AMSAT  $ORB11062.M
Orbital Elements  11062.MISC

HR AMSAT ORBITAL ELEMENTS FOR MANNED AND MISCELLANEOUS SATELLITES
FROM WA5QGD FORT WORTH,TX March 3, 2011
Send Subscribe/unsubscribe to KEPS at http://www.amsat.org/mailman/listinfo/kep
BID: ORB11062.M
TO ALL RADIO AMATEURS BT

Satellite: HUBBLE
Catalog number: 20580
Epoch time:      11062.21844846
Element set:     721
Inclination:      028.4712 deg
RA of node:       348.5857 deg
Eccentricity:    0.0003322
Arg of perigee:   078.4021 deg
Mean anomaly:     281.6963 deg
Mean motion:   15.01181443 rev/day
Decay rate:       6.36e-06 rev/day^2
Epoch rev:           94371
Checksum:              279

Satellite: ISS
Catalog number: 25544
Epoch time:      11062.66968330
Element set:     935
Inclination:      051.6480 deg
RA of node:       342.0829 deg
Eccentricity:    0.0005279
Arg of perigee:   039.9625 deg
Mean anomaly:     033.1957 deg
Mean motion:   15.72669582 rev/day
Decay rate:     2.4457e-04 rev/day^2
Epoch rev:           70429
Checksum:              327

Satellite: CO-58
Catalog number: 28895
Epoch time:      11062.66500318
Element set:     814
Inclination:      097.9837 deg
RA of node:       303.0429 deg
Eccentricity:    0.0017283
Arg of perigee:   188.0914 deg
Mean anomaly:     172.0020 deg
Mean motion:   14.60016808 rev/day
Decay rate:       2.15e-06 rev/day^2
Epoch rev:           28484
Checksum:              303

Satellite: FALCON
Catalog number: 30776
Epoch time:      11061.92760360
Element set:    0034
Inclination:      035.4349 deg
RA of node:       272.8750 deg
Eccentricity:    0.0001749
Arg of perigee:   293.0256 deg
Mean anomaly:     067.0279 deg
Mean motion:   15.04157170 rev/day
Decay rate:       9.36e-06 rev/day^2
Epoch rev:           21903
Checksum:              283

Satellite: MAST
Catalog number: 31126
Epoch time:      11061.62482998
Element set:    0099
Inclination:      097.9067 deg
RA of node:       094.8213 deg
Eccentricity:    0.0095058
Arg of perigee:   141.9198 deg
Mean anomaly:     218.8760 deg
Mean motion:   14.53679587 rev/day
Decay rate:       2.26e-06 rev/day^2
Epoch rev:           20560
Checksum:              332

Satellite: CAPE1
Catalog number: 31130
Epoch time:      11062.54436351
Element set:     118
Inclination:      097.9132 deg
RA of node:       092.6232 deg
Eccentricity:    0.0103431
Arg of perigee:   148.7594 deg
Mean anomaly:     211.9780 deg
Mean motion:   14.52299355 rev/day
Decay rate:       2.94e-06 rev/day^2
Epoch rev:           20530
Checksum:              272

Satellite: COMPASS
Catalog number: 32787
Epoch time:      11062.77090039
Element set:     923
Inclination:      097.8594 deg
RA of node:       128.5124 deg
Eccentricity:    0.0015892
Arg of perigee:   156.5532 deg
Mean anomaly:     203.6412 deg
Mean motion:   14.82167179 rev/day
Decay rate:       9.97e-06 rev/day^2
Epoch rev:           15394
Checksum:              323

Satellite: AAUSAT2
Catalog number: 32788
Epoch time:      11062.67971755
Element set:     913
Inclination:      097.8590 deg
RA of node:       128.6139 deg
Eccentricity:    0.0015292
Arg of perigee:   158.2699 deg
Mean anomaly:     201.9190 deg
Mean motion:   14.82330820 rev/day
Decay rate:       8.63e-06 rev/day^2
Epoch rev:           15394
Checksum:              328

Satellite: DO-64
Catalog number: 32789
Epoch time:      11061.70529631
Element set:    0930
Inclination:      097.8683 deg
RA of node:       128.4740 deg
Eccentricity:    0.0015770
Arg of perigee:   158.9709 deg
Mean anomaly:     201.2153 deg
Mean motion:   14.82634230 rev/day
Decay rate:      1.098e-05 rev/day^2
Epoch rev:           15380
Checksum:              310

Satellite: CO-66
Catalog number: 32791
Epoch time:      11061.75415561
Element set:    0915
Inclination:      097.8612 deg
RA of node:       127.4840 deg
Eccentricity:    0.0016139
Arg of perigee:   159.0790 deg
Mean anomaly:     201.1108 deg
Mean motion:   14.81901442 rev/day
Decay rate:       7.60e-06 rev/day^2
Epoch rev:           15374
Checksum:              292

